Notices

What's New in latest Release from April 7th, 2021:

- Updated Glossary, including Speed of Maximum Gust, and Total Hourly Precipitation

- Updated national and regional climate services offices contacts and prices information

- Addition of station inventory lists for 1981-2010, 1971-2000, and 1961-1990 Normals.

If you haven't already, please take our survey and provide feedback about our website: https://eccc.sondage-survey.ca/f/LanguageSelection.aspx?s=442ca660-fcf1-47c0-95a9-59707d6fd709

Hourly Data Report for March 03, 2003

TORONTO CITY
ONTARIO

43°40'00.000" N
79°24'00.000" W
112.50 m
6158355
71508
XTO

Download Data

Hourly Data (March 2003)
Hourly Data Report for March 3, 2003
TIME
LST
Temp Definition
°C
Dew Point Definition
°C
Rel Hum Definition
%
Precip. Amount Definition
mm

Wind Dir Definition
10's deg

Wind Spd Definition
km/h
Visibility Definition
km
Stn Press Definition
kPa
Hmdx Definition


Wind Chill Definition


Weather Definition


00:00 -17.4 -24.6 53   LegendMM LegendMM LegendMM 100.32     LegendNANA
01:00 -18.5 -26.2 51   LegendMM LegendMM LegendMM 100.43     LegendNANA
02:00 -19.3 -27.0 51   LegendMM LegendMM LegendMM 100.55     LegendNANA
03:00 -20.2 -27.8 51   LegendMM LegendMM LegendMM 100.58     LegendNANA
04:00 -21.2 -29.0 49   LegendMM LegendMM LegendMM 100.68     LegendNANA
05:00 -22.0 -29.5 51   LegendMM LegendMM LegendMM 100.79     LegendNANA
06:00 -22.6 -29.3 54   LegendMM LegendMM LegendMM 100.87     LegendNANA
07:00 -23.1 -29.5 56   LegendMM LegendMM LegendMM 100.95     LegendNANA
08:00 -23.0 -29.8 54   LegendMM LegendMM LegendMM 101.03     LegendNANA
09:00 -21.1 -29.3 48   LegendMM LegendMM LegendMM 101.10     LegendNANA
10:00 -20.1 -30.1 41   LegendMM LegendMM LegendMM 101.10     LegendNANA
11:00 -17.7 -28.7 38   LegendMM LegendMM LegendMM 101.07     LegendNANA
12:00 -15.8 -27.3 37   LegendMM LegendMM LegendMM 101.04     LegendNANA
13:00 -15.1 -28.2 32   LegendMM LegendMM LegendMM 100.95     LegendNANA
14:00 -14.6 -28.5 30   LegendMM LegendMM LegendMM 100.87     LegendNANA
15:00 -14.6 -23.8 45   LegendMM LegendMM LegendMM 100.84     LegendNANA
16:00 -14.5 -23.7 46   LegendMM LegendMM LegendMM 100.80     LegendNANA
17:00 -13.8 -21.0 55   LegendMM LegendMM LegendMM 100.74     LegendNANA
18:00 -13.2 -21.3 51   LegendMM LegendMM LegendMM 100.72     LegendNANA
19:00 -12.7 -22.0 46   LegendMM LegendMM LegendMM 100.68     LegendNANA
20:00 -13.5 -22.7 46   LegendMM LegendMM LegendMM 100.64     LegendNANA
21:00 -13.3 -20.9 53   LegendMM LegendMM LegendMM 100.55     LegendNANA
22:00 -13.0 -19.6 58   LegendMM LegendMM LegendMM 100.44     LegendNANA
23:00 -11.2 -17.5 60   LegendMM LegendMM LegendMM 100.39     LegendNANA

Notes on Data Quality.

Legend

  • E = Estimated
  • M = Missing
  • NA = Not Available*
  • [empty] = Indicates an unobserved value
Date modified: